www.pogodaiklimat.ru

Погода и климат >> Архив погоды >> Россия >> Якутия >> Жиганск


АРХИВ ПОГОДЫ в Жиганске

Время (UTC), дата Ветер
(напр.,м/с)
 
Видим.   Явления Облачность Т
(С)
Тd
(С)
f
(%)
Тe
(С)
Тes
(С)
Комфортность P
(гПа)
Po
(гПа)
Тmin
(С)
Tmax
(С)
R
(мм)
R24
(мм)
S
(см)
18 12.06 З 3
{10}
50 км слаб. дождь 10/8 360 м
[Frnb As op]
+2.8 +2.0 94 -1 -1 1006.8 995.3
21 12.06 З 3 50 км слаб. дождь 10/10 750 м
[Frnb Ns]
+2.5 +1.7 94 -2 -2 1009.0 997.5
00 13.06 СЗ 3 50 км в посл. час дождь 10/10 420 м
[St]
+3.7 +1.9 88 -0 -0 1011.4 1000.0 +0.3 5
03 13.06 С 2 50 км 10/10 480 м
[Sc]
+5.4 +1.6 76 +3 +3 1013.1 1001.8
06 13.06 С 3 50 км {дождь} 10/10 800 м
[Sc]
+6.8 +1.9 71 +4 +4 1014.5 1003.1
09 13.06 СЗ 1 50 км 10/10 1260 м
[Sc]
+7.0 +2.4 73 +6 +6 1015.7 1004.3
12 13.06 СЗ 1 50 км {дождь} 10/10 1140 м
[Sc]
+6.5 +3.4 81 +6 +6 1016.6 1005.2 +7.1 0.0
15 13.06 С 1 50 км 10/8 200 м
[Cb cap Ci sp]
+2.9 +1.6 91 +1 +1 1017.1 1005.5
18 13.06 штиль 0 50 км 10/8 1110 м
[Sc Ac trans Ci sp]
+4.0 +2.8 92 +3 +3 1017.3 1005.8
21 13.06 штиль 0 50 км 10/8 870 м
[St Ac trans Cs]
+5.5 +3.3 86 +5 +5 1017.5 1006.1
00 14.06 ЮЗ 1 50 км 8/8 1000 м
[Sc]
+8.4 +1.0 60 +8 +10 1017.5 1006.2 +2.5
03 14.06 ЮВ 3 50 км 6/3 1000 м
[Sc Ci fib]
+10.8 +2.1 55 +9 +15 1016.8 1005.6
06 14.06 Ю 3 50 км 9/0
[Ac cast Ci fib]
+12.2 +2.6 52 +11 +16 1015.3 1004.1
09 14.06 Ю 3 50 км 3/0
[Ci fib]
+14.0 +2.2 45 +13 +17 1014.0 1002.9
12 14.06 Ю 2 50 км 10/0
[Ci fib]
+14.2 +2.5 45 +14 +15 1013.0 1002.0 +14.5
15 14.06 Ю 2 50 км 8/0
[Ac trans Ci fib]
+10.8 +3.5 61 +10 +10 1013.0 1001.8
18 14.06 Ю 1 50 км 4/0
[Ci fib]
+6.6 +4.0 83 +6 +6 1012.7 1001.4
21 14.06 Ю 2 50 км 3/0
[Ci fib]
+10.8 +4.9 67 +10 +11 1012.8 1001.6
00 15.06 Ю 3 50 км ясно +13.9 +6.4 61 +13 +19 1011.9 1000.9 +5.8
03 15.06 Ю 5-12
{12}
50 км ясно +18.0 +0.9 32 +18 +24 1010.8 999.9
06 15.06 Ю 4-10
{10}
50 км ясно +19.1 +3.7 36 +19 +26 1009.2 998.4
09 15.06 Ю 3-10
{11}
50 км 1/0
[Ci fib]
+21.2 +5.6 36 +22 +25 комфорт 1008.4 997.7
12 15.06 Ю 3
{11}
50 км 3/0
[Ci fib]
+20.5 +4.8 36 +22 +22 комфорт 1008.6 997.8 +21.4
15 15.06 Ю 1 50 км 4/0
[Ac trans Ci fib]
+15.7 +5.7 51 +17 +17 1009.4 998.4
18 15.06 штиль 0 50 км 3/0
[Ci sp]
+10.0 +3.9 66 +10 +10 1010.4 999.2
21 15.06 штиль 0 50 км 5/0
[Ci fib]
+15.3 +8.2 63 +15 +17 1010.9 999.9
00 16.06 ЮВ 3 50 км 4/0
[Ci fib]
+18.4 +8.1 51 +19 +24 1011.0 1000.1 +10.0
03 16.06 ЮВ 3 50 км 3/0
[Ci fib]
+22.6 +8.8 41 +24 +33 комфорт 1010.7 1000.0
06 16.06 ЮВ 4 50 км 3/0
[Ci fib]
+24.7 +6.7 32 +25 +31 комфорт 1010.3 999.6
09 16.06 Ю 3 50 км 3/0
[Ci sp]
+25.2 +7.2 32 +25 +29 комфорт 1010.1 999.5
12 16.06 штиль 0 50 км 9/4 1000 м
[Cb cap Ac trans]
+23.0 +11.7 49 +25 +25 комфорт 1011.1 1000.4 +25.2 +25.2
15 16.06 СВ 3 50 км слаб. дождь 10/5 1000 м
[Sc Ac lent]
+17.1 +13.7 80 +17 +17 1013.0 1002.1
18 16.06 СВ 2 50 км 8/5 1000 м
[Sc Ac As]
+14.4 +13.3 93 +14 +14 1013.9 1002.9
21 16.06 СВ 4 4000 м дымка 10/10 100 м
[St]
+13.1 +12.2 94 +11 +11 1014.8 1003.8
00 17.06 С 4 50 км 8/3 300 м
[St Ac trans Ci fib]
+15.6 +12.5 82 +15 +17 1015.5 1004.5 +12.1 0.0
03 17.06 С 4 50 км 4/0
[Ci fib]
+19.4 +12.1 63 +21 +28 комфорт 1014.9 1004.0
06 17.06 С 3 50 км 3/0
[Ci fib]
+23.4 +8.4 38 +25 +32 комфорт 1015.0 1004.3
09 17.06 СВ 3 50 км 3/0
[Ci fib]
+23.9 +8.1 36 +24 +28 комфорт 1012.9 1002.2
12 17.06 С 2 50 км ясно +22.6 +7.2 37 +23 +24 комфорт 1012.2 1001.5 +24.4
15 17.06 С 3 50 км ясно +17.8 +6.0 46 +18 +18 1012.2 1001.3
18 17.06 С 2 50 км 1/0
[Ci fib]
+14.5 +6.9 60 +14 +14 1012.6 1001.6
21 17.06 С 1 50 км ясно +15.9 +8.2 60 +17 +19 1012.3 1001.3
00 18.06 С 2 50 км ясно +21.1 +8.6 45 +22 +29 комфорт 1011.4 1000.7 +13.7
03 18.06 С 1 50 км 3/0
[Ci fib]
+23.1 +4.3 29 +23 +36 комфорт 1010.3 999.6
06 18.06 С 1 50 км 3/0
[Ci fib]
+26.5 +3.4 23 +25 +36 комфорт 1008.5 998.0
09 18.06 штиль 0 50 км 3/0
[Ci fib]
+27.5 +4.0 22 +26 +31 жарко 1007.1 996.6
12 18.06 штиль 0 50 км 1/0
[Ci fib]
+25.0 +9.5 37 +26 +26 жарко 1006.3 995.8 +27.6
15 18.06 штиль 0 50 км 1/0
[Ci fib]
+13.0 +2.5 49 +13 +13 1006.8 995.7
18 18.06 штиль 0 50 км 3/0
[Ci fib]
+12.6 +6.3 65 +12 +12 1007.2 996.1
21 18.06 штиль 0 50 км 3/0
[Ci fib]
+18.6 +10.4 59 +19 +21 1006.7 995.9
00 19.06 Ю 1 н/о +22.0 +9.4 45 +24 +31 комфорт 1007.1 996.4 +10.8
03 19.06 Ю 2 50 км 3/0
[Ci fib]
+25.9 +7.8 32 +26 +37 жарко 1070.2 996.6
06 19.06 Ю 2 50 км 5/3 1000 м
[Cu hum Ci fib]
+29.0 +7.7 26 +28 +35 жарко 1006.3 995.9
09 19.06 В 1 50 км 4/3 1000 м
[Cu med, cong Ci fib]
+30.1 +10.3 29 +30 +33 жарко 1005.9 995.5
12 19.06 С 4 50 км 3/0
[Ci fib]
+24.7 +16.8 61 +28 +29 душно 1008.3 997.3 +30.2
15 19.06 С 2 50 км 4/0
[Ac trans Ci fib]
+18.2 +14.6 80 +19 +19 1009.4 998.6

 

Местоположение метеостанции Жиганск (Якутия, Россия): широта 66.78 долгота 123.30 высота над уровнем моря 92 м.

В архиве по умолчанию представлена погода в Жиганске за последнюю неделю. Архивные данные за месяц целиком и за предыдущие месяцы, начиная с января 2011 года, Вы можете получить, выбрав интересующий диапазон дат из раскрывающегося списка и нажав кнопку "Ввод!".


*Определитесь, кто Вы:
робот инопланетянин человек

Внимание! Время в таблицах - всемирное. Для получения местного времени необходимо прибавить поправку, которая равна 9 ч.

Смотрите также архив погоды в соседних городах и на ближайших метеорологических станциях:

Погода в Бестяхской Звероферме (Якутия, Россия) (169 км)
Погода в Джарджане (Якутия, Россия) (219 км)
Погода в Эйке (Якутия, Россия) (275 км)
Погода в Сухане (Якутия, Россия) (294 км)
Погода в Сого-Хае (Якутия, Россия) (313 км)
Погода в Хатырык-Хомо (Якутия, Россия) (322 км)
Погода в Батагай-Алыте (Якутия, Россия) (324 км)
Погода в Вилюйске (Якутия, Россия) (344 км)
Погода в Себян-Кюеле (Якутия, Россия) (344 км)
Погода в Екюччю (Якутия, Россия) (364 км)

Пояснения к столбцам:

Ветер - указаны скорость ветра в м/с - средняя за 10 мин, порывы в срок и между сроками (в фигурных скобках) и направление, откуда дует ветер: С - северный, СВ - северо-восточный, В - восточный, ЮВ - юго-восточный, Ю - южный, ЮЗ - юго-западный, З - западный, СЗ - северо-западный.
Видимость - горизонтальная дальность видимости в метрах или километрах. При видимости от 1 до 10 км при отсутствии осадков обычно наблюдается дымка, при ухудшении видимости до 1 км и менее - туман. В сухую погоду видимость может ухудшаться дымом, пылью или мглою.
Явления - указаны атмосферные явления, наблюдавшиеся в срок или в последний час перед сроком; фигурными скобками обозначены явления, наблюдавшиеся между сроками (за 1-3 часа до срока); квадратными скобками обозначены град или гололедные отложения с указанием их диаметра в мм.
Облачность - указаны через наклонную черту общая и нижняя облачность в баллах и высота нижней границы облаков в метрах; квадратными скобками обозначены формы облаков: Ci - перистые, Cs - перисто-слоистые, Cc - перисто-кучевые, Ac - высококучевые, As - высокослоистые, Sc - слоисто-кучевые, Ns - слоисто-дождевые, Cu - кучевые, Cb - кучево-дождевые. Подробнее классификацию облаков см. в Атласе облаков (PDF).
T - Температура воздуха - температура, измеренная на высоте 2 м над землей.
Td - Температура точки росы - температура, при понижении до которой содержащийся в воздухе водяной пар достигнет насыщения.
f - Относительная влажность воздуха - влажноcть воздуха, измеренная на высоте 2 м над землей.
Te - Эффективная температура - температура, которую ощущает одетый по сезону человек в тени. Характеристика душности погоды. При расчете учитывается влияние влажности воздуха и скорости ветра на теплоощущения человека.
Tes - Эффективная температура на солнце - температура, которую ощущает человек, с поправкой на солнечный нагрев. Характеристика знойности погоды. Зависит от высоты солнца над горизонтом, облачности и скорости ветра. Ночью, в пасмурную погоду, а также при ветре 12 м/с и более поправка равна нулю.
P - Атмосферное давление - приведенное к уровню моря атмосферное давление.
Po - Атмосферное давление - измеренное на уровне метеостанции атмосферное давление.
Tmin - Минимальная температура - минимум температуры воздуха на высоте 2 м над землей.
Tmax - Максимальная температура - максимум температуры воздуха на высоте 2 м над землей.
R - Количество осадков - Количество выпавших осадков за период времени, мм. При наведении курсора мыши на число - период времени, за который выпало указанное количество осадков.
R24 - Количество осадков - Количество выпавших осадков за 24 часа, мм.
S - Снежный покров - Высота снежного покрова, см. При наведении курсора мыши на число - состояние снежного покрова и степень покрытия местности в баллах.